{"data":{"norad_id":66260,"intl_designator":"2025-245AC","name":"STARLINK-35420","alt_names":[],"object_type":"PAYLOAD","status":"ACTIVE","operator":null,"country":"US","launch_date":"2025-10-29","launch_site_code":"AFETR","launch_vehicle":null,"mission":null,"orbit_class":"UNKNOWN","rcs_meters":null,"size_class":null,"mass_kg":null,"dimensions":null,"purposes":["comms"],"wikipedia_slug":null,"has_3d_model":false,"image_url":null,"decayed_at":null,"tle_current":{"epoch":"2026-05-25T03:13:20.222112Z","epoch_age_seconds":63785,"freshness":"FRESH","line1":"1 66260U 25245AC  26145.13426183  .00022105  00000+0  72156-3 0  9997","line2":"2 66260  53.1598 288.5883 0000982 102.6622 257.4490 15.31718183 32962","mean_motion":15.31718183,"eccentricity":9.82e-5,"inclination_deg":53.1598,"raan_deg":288.5883,"arg_perigee_deg":102.6622,"mean_anomaly_deg":257.449,"bstar":0.00072156,"rev_number":3296,"period_min":94.012071932164,"perigee_km":470.01323878672,"apogee_km":471.3583475833,"semimajor_km":6848.822793185,"source":"CELESTRAK","updated_at":"2026-05-25T13:38:21.139322Z"}}}